AUA6S LDSP-LOWW

Flight info

Callsign AUA6S
Flight time 1h 12m
Altitude 36000
Route UNIPA DCT OBUTI OBUTI2W
Aircraft A321/M-SDE2E3FGIJ1RWXY/LB1

Departure

Time 2026-04-24 15:46
Airport Split Saint Jerome Airport (LDSP)

Arrival

Time 2026-04-24 16:59
Airport Vienna International Airport (LOWW)
Time Latitude Longitude Altitude Speed Heading
2026-04-24 14:53 43.53659 16.29748 74 ft 0 kts 92°
2026-04-24 15:42 43.53660 16.29752 101 ft 2 kts 76°
2026-04-24 15:43 43.53680 16.29744 70 ft 5 kts 311°
2026-04-24 15:43 43.53725 16.29739 73 ft 9 kts 39°
2026-04-24 15:43 43.53775 16.29821 69 ft 13 kts 54°
2026-04-24 15:43 43.53838 16.29934 71 ft 16 kts 54°
2026-04-24 15:44 43.53917 16.30065 73 ft 19 kts 26°
2026-04-24 15:44 43.54050 16.30115 70 ft 21 kts 25°
2026-04-24 15:44 43.54154 16.30272 61 ft 24 kts 52°
2026-04-24 15:44 43.54262 16.30455 65 ft 26 kts 53°
2026-04-24 15:45 43.54374 16.30656 59 ft 27 kts 53°
2026-04-24 15:45 43.54492 16.30876 55 ft 29 kts 53°
2026-04-24 15:45 43.54549 16.31054 55 ft 13 kts 53°
2026-04-24 15:45 43.54576 16.31031 54 ft 4 kts 247°
2026-04-24 15:46 43.54551 16.30979 58 ft 16 kts 234°
2026-04-24 15:46 43.54284 16.30499 63 ft 106 kts 234°
2026-04-24 15:46 43.53691 16.29439 202 ft 160 kts 240°
2026-04-24 15:46 43.53022 16.28240 1122 ft 156 kts 237°
2026-04-24 15:47 43.52359 16.27059 1987 ft 157 kts 236°
2026-04-24 15:47 43.51602 16.25784 2064 ft 190 kts 233°
2026-04-24 15:47 43.50679 16.24280 2229 ft 221 kts 235°
2026-04-24 15:47 43.49653 16.22579 2639 ft 239 kts 239°
2026-04-24 15:48 43.48984 16.20473 3195 ft 244 kts 264°
2026-04-24 15:48 43.49095 16.18159 3877 ft 243 kts 291°
2026-04-24 15:48 43.49857 16.16091 4655 ft 245 kts 306°
2026-04-24 15:48 43.50806 16.14091 5381 ft 253 kts 308°
2026-04-24 15:49 43.51781 16.12029 6032 ft 261 kts 308°
2026-04-24 15:49 43.52778 16.09882 6627 ft 272 kts 311°
2026-04-24 15:49 43.53803 16.07663 7300 ft 277 kts 306°
2026-04-24 15:49 43.54868 16.05435 8047 ft 278 kts 311°
2026-04-24 15:50 43.56318 16.03708 8753 ft 277 kts 334°
2026-04-24 15:50 43.58123 16.02999 9437 ft 277 kts 358°
2026-04-24 15:50 43.60037 16.03321 10115 ft 280 kts 13°
2026-04-24 15:50 43.61984 16.03986 10467 ft 297 kts 14°
2026-04-24 15:51 43.64045 16.04692 10741 ft 314 kts 13°
2026-04-24 15:51 43.66224 16.05408 11103 ft 327 kts 13°
2026-04-24 15:51 43.68472 16.06123 11604 ft 334 kts 13°
2026-04-24 15:51 43.70744 16.06873 12262 ft 337 kts 16°
2026-04-24 15:52 43.72896 16.08176 12897 ft 340 kts 33°
2026-04-24 15:52 43.74676 16.10332 13640 ft 342 kts 43°
2026-04-24 15:52 43.76360 16.12678 14235 ft 345 kts 44°
2026-04-24 15:52 43.78066 16.15032 14809 ft 347 kts 43°
2026-04-24 15:53 43.79789 16.17368 15461 ft 348 kts 43°
2026-04-24 15:53 43.81538 16.19714 15991 ft 351 kts 43°
2026-04-24 15:53 43.83304 16.22064 16583 ft 353 kts 43°
2026-04-24 15:53 43.85089 16.24436 17074 ft 358 kts 44°
2026-04-24 15:54 43.86885 16.26827 17610 ft 361 kts 44°
2026-04-24 15:54 43.88711 16.29257 18168 ft 363 kts 44°
2026-04-24 15:54 43.90540 16.31694 18648 ft 366 kts 44°
2026-04-24 15:54 43.92383 16.34152 19113 ft 369 kts 44°
2026-04-24 15:55 43.94239 16.36629 19564 ft 372 kts 44°
2026-04-24 15:55 43.96108 16.39125 20016 ft 374 kts 44°
2026-04-24 15:55 43.97986 16.41638 20497 ft 376 kts 44°
2026-04-24 15:55 43.99886 16.44149 20949 ft 378 kts 41°
2026-04-24 15:56 44.02029 16.46288 21340 ft 382 kts 29°
2026-04-24 15:56 44.04514 16.47624 21748 ft 386 kts 14°
2026-04-24 15:56 44.07199 16.48004 22148 ft 392 kts
2026-04-24 15:56 44.09934 16.47798 22573 ft 395 kts 358°
2026-04-24 15:57 44.12687 16.47517 22954 ft 398 kts 358°
2026-04-24 15:57 44.15449 16.47247 23055 ft 398 kts 358°
2026-04-24 15:57 44.17282 16.47077 23059 ft 398 kts 359°
2026-04-24 15:57 44.20979 16.46750 23053 ft 398 kts 358°
2026-04-24 15:58 44.23739 16.46511 23039 ft 398 kts 358°
2026-04-24 15:58 44.26502 16.46273 23047 ft 397 kts 359°
2026-04-24 15:58 44.29261 16.46036 23047 ft 397 kts 358°
2026-04-24 15:58 44.32022 16.45800 23037 ft 397 kts 359°
2026-04-24 15:59 44.34781 16.45565 23039 ft 397 kts 359°
2026-04-24 15:59 44.37540 16.45328 23051 ft 397 kts 358°
2026-04-24 15:59 44.40294 16.45090 23045 ft 397 kts 358°
2026-04-24 15:59 44.43054 16.44854 23045 ft 397 kts 358°
2026-04-24 16:00 44.45812 16.44619 23054 ft 397 kts 358°
2026-04-24 16:00 44.48573 16.44379 23052 ft 397 kts 358°
2026-04-24 16:00 44.51331 16.44141 23054 ft 397 kts 358°
2026-04-24 16:00 44.54089 16.43902 23050 ft 397 kts 358°
2026-04-24 16:01 44.56807 16.43668 23059 ft 397 kts 358°
2026-04-24 16:01 44.59571 16.43430 23050 ft 397 kts 358°
2026-04-24 16:01 44.62333 16.43191 23038 ft 398 kts 358°
2026-04-24 16:01 44.65099 16.42951 23049 ft 399 kts 358°
2026-04-24 16:02 44.67865 16.42709 23050 ft 398 kts 358°
2026-04-24 16:02 44.70635 16.42465 23048 ft 398 kts 358°
2026-04-24 16:02 44.73400 16.42222 23048 ft 398 kts 358°
2026-04-24 16:02 44.76169 16.41983 23044 ft 398 kts 358°
2026-04-24 16:03 44.78933 16.41743 23042 ft 398 kts 358°
2026-04-24 16:03 44.81700 16.41500 23043 ft 398 kts 358°
2026-04-24 16:03 44.84467 16.41256 23046 ft 398 kts 358°
2026-04-24 16:03 44.87233 16.41012 23043 ft 398 kts 358°
2026-04-24 16:04 44.89997 16.40769 23038 ft 398 kts 358°
2026-04-24 16:04 44.92763 16.40529 23037 ft 398 kts 358°
2026-04-24 16:04 44.95527 16.40287 23039 ft 398 kts 358°
2026-04-24 16:04 44.98292 16.40043 23036 ft 398 kts 358°
2026-04-24 16:05 45.03817 16.39550 23037 ft 398 kts 358°
2026-04-24 16:05 45.06576 16.39307 22944 ft 394 kts 358°
2026-04-24 16:06 45.11981 16.38828 22412 ft 390 kts 358°
2026-04-24 16:06 45.14695 16.38588 22140 ft 397 kts 358°
2026-04-24 16:06 45.20258 16.38095 21088 ft 402 kts 357°
2026-04-24 16:07 45.23037 16.37844 20484 ft 399 kts 357°
2026-04-24 16:07 45.25792 16.37572 19873 ft 396 kts 355°
2026-04-24 16:07 45.31027 16.35288 18885 ft 393 kts 341°
2026-04-24 16:08 45.33579 16.33927 18457 ft 391 kts 341°
2026-04-24 16:08 45.38658 16.31308 17517 ft 385 kts 341°
2026-04-24 16:09 45.43651 16.28758 16593 ft 377 kts 341°
2026-04-24 16:09 45.46111 16.27501 16136 ft 374 kts 341°
2026-04-24 16:09 45.47763 16.26659 15838 ft 372 kts 341°
2026-04-24 16:09 45.50970 16.25021 15255 ft 368 kts 341°
2026-04-24 16:10 45.58112 16.21362 13973 ft 359 kts 341°
2026-04-24 16:11 45.62789 16.18961 13026 ft 355 kts 341°
2026-04-24 16:11 45.65109 16.17767 12568 ft 353 kts 341°
2026-04-24 16:11 45.67409 16.16585 12107 ft 350 kts 341°
2026-04-24 16:12 45.71966 16.14232 11209 ft 346 kts 341°
2026-04-24 16:12 45.74222 16.13067 10775 ft 343 kts 341°
2026-04-24 16:12 45.78689 16.10764 9913 ft 339 kts 341°
2026-04-24 16:13 45.80903 16.09624 9483 ft 337 kts 340°
2026-04-24 16:13 45.85277 16.07359 8893 ft 331 kts 340°
2026-04-24 16:14 45.89599 16.05120 8372 ft 329 kts 340°
2026-04-24 16:14 45.91743 16.04005 8120 ft 327 kts 340°
2026-04-24 16:14 45.96005 16.01788 7597 ft 325 kts 339°
2026-04-24 16:15 45.97410 16.01057 7440 ft 325 kts 339°
2026-04-24 16:15 46.02398 15.98461 6883 ft 326 kts 338°
2026-04-24 16:16 46.05947 15.96609 6560 ft 326 kts 338°
2026-04-24 16:16 46.08070 15.95502 6361 ft 323 kts 338°
2026-04-24 16:17 46.14417 15.92178 5732 ft 324 kts 338°
2026-04-24 16:17 46.18644 15.89961 5248 ft 322 kts 338°
2026-04-24 16:18 46.22878 15.87737 4789 ft 326 kts 338°
2026-04-24 16:18 46.27123 15.85505 4284 ft 323 kts 338°
2026-04-24 16:18 46.29195 15.84413 4032 ft 311 kts 338°
2026-04-24 16:19 46.33101 15.82334 3593 ft 288 kts 338°
2026-04-24 16:19 46.34919 15.81242 3383 ft 277 kts 329°
2026-04-24 16:20 46.38025 15.78289 2952 ft 261 kts 324°
2026-04-24 16:20 46.40988 15.75409 2297 ft 249 kts 325°
2026-04-24 16:20 46.42383 15.74056 1984 ft 233 kts 326°
2026-04-24 16:21 46.44917 15.71593 1388 ft 212 kts 326°
2026-04-24 16:21 46.46136 15.70408 1116 ft 210 kts 326°
2026-04-24 16:21 46.47320 15.69259 899 ft 196 kts 326°
2026-04-24 16:22 46.48405 15.68165 953 ft 189 kts 324°
2026-04-24 16:22 46.50795 15.66161 1907 ft 204 kts 340°
2026-04-24 16:22 46.52204 15.66051 1885 ft 207 kts 21°
2026-04-24 16:23 46.53250 15.67357 1907 ft 205 kts 69°
2026-04-24 16:23 46.53325 15.69349 1932 ft 202 kts 113°
2026-04-24 16:23 46.52499 15.70970 1793 ft 205 kts 143°
2026-04-24 16:24 46.50174 15.73286 1658 ft 197 kts 149°
2026-04-24 16:24 46.49035 15.74235 1791 ft 178 kts 152°
2026-04-24 16:24 46.47949 15.74971 1805 ft 173 kts 167°
2026-04-24 16:24 46.46846 15.74605 1721 ft 165 kts 211°
2026-04-24 16:25 46.46032 15.73502 1531 ft 159 kts 229°
2026-04-24 16:25 46.45483 15.72151 1381 ft 149 kts 251°
2026-04-24 16:25 46.45734 15.70769 1265 ft 152 kts 317°
2026-04-24 16:26 46.47512 15.69076 880 ft 144 kts 326°
2026-04-24 16:26 46.48329 15.68280 886 ft 157 kts 326°
2026-04-24 16:26 46.50178 15.66536 2147 ft 157 kts 327°
2026-04-24 16:27 46.51234 15.65626 2016 ft 187 kts 328°
2026-04-24 16:27 46.52440 15.64870 2015 ft 193 kts 356°
2026-04-24 16:27 46.53647 15.65529 2077 ft 190 kts 48°
2026-04-24 16:27 46.54420 15.67142 2055 ft 199 kts 61°
2026-04-24 16:28 46.55076 15.68881 2067 ft 194 kts 65°
2026-04-24 16:28 46.55223 15.70728 2016 ft 188 kts 113°
2026-04-24 16:28 46.53209 15.72962 2002 ft 184 kts 154°
2026-04-24 16:29 46.52119 15.73793 1957 ft 171 kts 151°
2026-04-24 16:29 46.51141 15.74681 1888 ft 161 kts 148°
2026-04-24 16:29 46.49305 15.76351 1802 ft 151 kts 152°
2026-04-24 16:30 46.47429 15.77678 1745 ft 151 kts 158°
2026-04-24 16:30 46.46437 15.77469 1742 ft 153 kts 217°
2026-04-24 16:30 46.45763 15.76244 1742 ft 155 kts 234°
2026-04-24 16:31 46.45210 15.74900 1690 ft 156 kts 238°
2026-04-24 16:31 46.44882 15.73411 1505 ft 158 kts 269°
2026-04-24 16:31 46.45115 15.71871 1367 ft 157 kts 295°
2026-04-24 16:31 46.45824 15.70683 1205 ft 157 kts 325°
2026-04-24 16:32 46.46735 15.69829 1001 ft 154 kts 327°
2026-04-24 16:32 46.47612 15.68978 878 ft 142 kts 326°
2026-04-24 16:32 46.48410 15.68202 881 ft 151 kts 326°
2026-04-24 16:32 46.49340 15.67299 1486 ft 162 kts 326°
2026-04-24 16:33 46.50063 15.66111 1796 ft 166 kts 278°
2026-04-24 16:33 46.49777 15.64451 2074 ft 186 kts 225°
2026-04-24 16:33 46.48586 15.63733 2287 ft 197 kts 177°
2026-04-24 16:33 46.47307 15.64482 2254 ft 200 kts 146°
2026-04-24 16:34 46.46168 15.65597 2146 ft 196 kts 150°
2026-04-24 16:34 46.45017 15.66578 2055 ft 184 kts 153°
2026-04-24 16:34 46.44143 15.67762 1785 ft 179 kts 106°
2026-04-24 16:34 46.44586 15.69298 1520 ft 173 kts 38°
2026-04-24 16:35 46.45713 15.69680 1224 ft 162 kts
2026-04-24 16:35 46.46822 15.69649 948 ft 157 kts 343°
2026-04-24 16:35 46.47705 15.68893 878 ft 139 kts 326°
2026-04-24 16:35 46.48566 15.68059 954 ft 167 kts 326°
2026-04-24 16:36 46.49534 15.67177 1831 ft 167 kts 338°
2026-04-24 16:36 46.50750 15.67005 2513 ft 185 kts
2026-04-24 16:36 46.52049 15.67247 3224 ft 193 kts
2026-04-24 16:36 46.53424 15.67627 3593 ft 208 kts 10°
2026-04-24 16:37 46.54865 15.68078 4002 ft 222 kts 13°
2026-04-24 16:37 46.56404 15.68734 4408 ft 240 kts 14°
2026-04-24 16:37 46.58062 15.69448 4928 ft 256 kts 14°
2026-04-24 16:37 46.59804 15.70198 5634 ft 264 kts 14°
2026-04-24 16:38 46.61572 15.70956 6500 ft 265 kts 13°
2026-04-24 16:38 46.63346 15.71714 7346 ft 266 kts 13°
2026-04-24 16:38 46.65126 15.72477 8170 ft 267 kts 13°
2026-04-24 16:38 46.66916 15.73242 9025 ft 268 kts 12°
2026-04-24 16:39 46.68710 15.74012 9849 ft 270 kts 12°
2026-04-24 16:39 46.70538 15.74794 10371 ft 281 kts 12°
2026-04-24 16:39 46.72476 15.75621 10669 ft 300 kts 13°
2026-04-24 16:39 46.74534 15.76503 10951 ft 317 kts 13°
2026-04-24 16:40 46.76702 15.77438 11305 ft 331 kts 13°
2026-04-24 16:40 46.78932 15.78406 11880 ft 337 kts 14°
2026-04-24 16:40 46.81196 15.79382 12510 ft 342 kts 14°
2026-04-24 16:40 46.83491 15.80367 13134 ft 346 kts 15°
2026-04-24 16:41 46.85816 15.81368 13702 ft 351 kts 15°
2026-04-24 16:41 46.88169 15.82381 13948 ft 353 kts 15°
2026-04-24 16:41 46.90499 15.83386 14008 ft 353 kts 15°
2026-04-24 16:41 46.92848 15.84403 14025 ft 350 kts 14°
2026-04-24 16:42 46.95186 15.85417 14022 ft 350 kts 14°
2026-04-24 16:42 46.97533 15.86430 14013 ft 350 kts 14°
2026-04-24 16:42 46.99871 15.87440 14011 ft 350 kts 14°
2026-04-24 16:42 47.02209 15.88454 14012 ft 350 kts 14°
2026-04-24 16:43 47.04544 15.89470 14019 ft 350 kts 14°
2026-04-24 16:43 47.06857 15.90478 14021 ft 350 kts 14°
2026-04-24 16:43 47.09198 15.91494 14022 ft 350 kts 14°
2026-04-24 16:43 47.11535 15.92511 14029 ft 350 kts 14°
2026-04-24 16:44 47.13870 15.93528 14024 ft 350 kts 14°
2026-04-24 16:44 47.16206 15.94549 14022 ft 350 kts 14°
2026-04-24 16:44 47.18544 15.95574 14022 ft 350 kts 14°
2026-04-24 16:44 47.20881 15.96597 14021 ft 350 kts 14°
2026-04-24 16:45 47.23213 15.97619 14022 ft 350 kts 14°
2026-04-24 16:45 47.25544 15.98654 14019 ft 350 kts 16°
2026-04-24 16:45 47.27714 16.00307 14022 ft 355 kts 32°
2026-04-24 16:45 47.29658 16.02564 13767 ft 355 kts 36°
2026-04-24 16:46 47.31556 16.04892 13310 ft 355 kts 36°
2026-04-24 16:46 47.33451 16.07205 12812 ft 353 kts 36°
2026-04-24 16:46 47.35345 16.09495 12309 ft 350 kts 36°
2026-04-24 16:46 47.37234 16.11758 11807 ft 349 kts 36°
2026-04-24 16:47 47.39082 16.13972 11314 ft 346 kts 35°
2026-04-24 16:47 47.40947 16.16197 10797 ft 344 kts 35°
2026-04-24 16:47 47.42804 16.18416 10268 ft 342 kts 35°
2026-04-24 16:47 47.44641 16.20621 9865 ft 340 kts 35°
2026-04-24 16:48 47.46480 16.22807 9445 ft 337 kts 34°
2026-04-24 16:48 47.48406 16.24754 9040 ft 335 kts 28°
2026-04-24 16:48 47.50391 16.26564 8693 ft 333 kts 27°
2026-04-24 16:48 47.52357 16.28350 8378 ft 331 kts 28°
2026-04-24 16:49 47.54316 16.30141 8077 ft 331 kts 28°
2026-04-24 16:49 47.56265 16.31924 7780 ft 328 kts 28°
2026-04-24 16:49 47.58202 16.33708 7491 ft 327 kts 28°
2026-04-24 16:49 47.60128 16.35497 7196 ft 326 kts 28°
2026-04-24 16:50 47.61403 16.36675 6999 ft 326 kts 28°
2026-04-24 16:50 47.63965 16.39054 6605 ft 323 kts 29°
2026-04-24 16:50 47.65873 16.40823 6296 ft 322 kts 28°
2026-04-24 16:50 47.67753 16.42557 5993 ft 321 kts 28°
2026-04-24 16:51 47.69635 16.44304 5684 ft 318 kts 28°
2026-04-24 16:51 47.71524 16.46050 5332 ft 319 kts 28°
2026-04-24 16:51 47.73397 16.47791 4971 ft 318 kts 28°
2026-04-24 16:51 47.75271 16.49536 4610 ft 318 kts 28°
2026-04-24 16:52 47.77148 16.51278 4279 ft 317 kts 28°
2026-04-24 16:52 47.79025 16.53020 3973 ft 316 kts 28°
2026-04-24 16:52 47.80886 16.54751 3701 ft 315 kts 28°
2026-04-24 16:52 47.82726 16.56467 3478 ft 306 kts 28°
2026-04-24 16:53 47.84469 16.58101 3291 ft 293 kts 28°
2026-04-24 16:53 47.86173 16.59708 3159 ft 279 kts 28°
2026-04-24 16:53 47.87778 16.61215 3040 ft 266 kts 28°
2026-04-24 16:53 47.89321 16.62651 2958 ft 260 kts 27°
2026-04-24 16:54 47.90828 16.64042 2952 ft 248 kts 27°
2026-04-24 16:54 47.92266 16.65269 2933 ft 227 kts 17°
2026-04-24 16:54 47.93717 16.65560 2939 ft 209 kts 351°
2026-04-24 16:54 47.95105 16.65126 2950 ft 197 kts 341°
2026-04-24 16:55 47.96406 16.64500 2968 ft 196 kts 339°
2026-04-24 16:55 47.97685 16.63884 2897 ft 188 kts 339°
2026-04-24 16:55 47.98916 16.63336 2674 ft 183 kts 341°
2026-04-24 16:55 48.00139 16.62815 2406 ft 179 kts 341°
2026-04-24 16:56 48.01299 16.62325 2141 ft 166 kts 342°
2026-04-24 16:56 48.02348 16.61883 1936 ft 148 kts 342°
2026-04-24 16:56 48.03322 16.61471 1726 ft 145 kts 341°
2026-04-24 16:56 48.04290 16.61063 1530 ft 144 kts 341°
2026-04-24 16:57 48.05255 16.60655 1339 ft 144 kts 340°
2026-04-24 16:57 48.06221 16.60247 1148 ft 144 kts 339°
2026-04-24 16:57 48.07184 16.59840 951 ft 144 kts 340°
2026-04-24 16:57 48.08146 16.59434 774 ft 143 kts 339°
2026-04-24 16:58 48.09103 16.59030 631 ft 139 kts 341°
2026-04-24 16:58 48.09919 16.58688 620 ft 102 kts 343°
2026-04-24 16:58 48.10518 16.58432 617 ft 79 kts 343°
2026-04-24 16:58 48.10994 16.58231 615 ft 65 kts 344°
2026-04-24 16:59 48.11408 16.58057 620 ft 58 kts 343°
2026-04-24 16:59 48.11693 16.57936 622 ft 31 kts 344°
2026-04-24 16:59 48.11845 16.57622 624 ft 20 kts 237°
2026-04-24 17:00 48.11809 16.57415 613 ft 22 kts 262°
2026-04-24 17:00 48.11782 16.57129 619 ft 8 kts 206°
2026-04-24 17:00 48.11770 16.57120 619 ft 0 kts 205°